Flag for Canada Weather past 2 weeks in Niagara Falls, Ontario, Canada

Now
23 °F

Clear.


Feels Like: 16 °F
Forecast: 16 / 38 °F
Wind: 6 mph from Northwest

Location: Niagara Falls International Airport

Current Time: Mar 28, 2015 at 10:02:49 PM

Latest Report: Mar 28, 2015 at 8:53 PM


Visibility: 10 mi

Pressure: 30.27 "Hg

Humidity: 53%

Dew point: 8 °F

Location of Niagara FallsLocation

Historic Weather in Niagara Falls — Graph

°F

Niagara Falls temperature yesterday

Maximum temperature yesterday: 34 °F (at 12:53 AM)
Minimum temperature yesterday: 20 °F (at 10:53 PM)
Average temperature yesterday: 27 °F

Past Weeks' High & Low Weather Summary

 TemperatureHumidityPressure
High45 °F (Mar 20, 4:53 PM)100% (Mar 26, 11:53 AM)30.44 "Hg (Mar 26, 11:53 AM)
Low16 °F (Mar 19, 4:53 AM)35% (Mar 23, 5:53 PM)29.65 "Hg (Mar 17, 4:03 AM)
Average31 °F69%30.09 "Hg
* Reported Mar 13 8:53 PM — Mar 28 8:53 PM, Niagara Falls, Weather by CustomWeather, © 2015

Note: Actual official high and low records may vary slightly from our data, if they occured in-between our weather recording intervals... More about our weather records

Advertising

Niagara Falls weather history for previous 24 hours

 ConditionsComfort  
Time TempWeatherWind HumidityBarometerVisibility
8:53 PM
Sat, Mar 28
23 °FClear.6 mph53%30.27 "Hg10 mi
7:53 PM25 °FPassing clouds.8 mph46%30.25 "Hg10 mi
6:53 PM27 °FPassing clouds.13 mph39%30.24 "Hg10 mi
5:53 PM28 °FPassing clouds.10 mph39%30.22 "Hg10 mi
4:53 PM27 °FPassing clouds.14 mph41%30.20 "Hg10 mi
3:53 PM26 °FPassing clouds.15 mph40%30.20 "Hg10 mi
2:53 PM26 °FPassing clouds.12 mph44%30.21 "Hg10 mi
1:53 PM24 °FPassing clouds.14 mph48%30.22 "Hg10 mi
12:53 PM22 °FPassing clouds.14 mph52%30.22 "Hg10 mi
11:53 AM20 °FScattered clouds.14 mph60%30.23 "Hg10 mi
10:53 AM19 °FScattered clouds.12 mph62%30.23 "Hg10 mi
9:53 AM18 °FScattered clouds.13 mph59%30.21 "Hg10 mi
8:53 AM17 °FBroken clouds.13 mph59%30.19 "Hg10 mi
7:53 AM16 °FPartly cloudy.8 mph67%30.16 "Hg10 mi
7:00 AM17 °FLight snow. Passing clouds.14 mph70%30.08 "Hg7 mi
5:53 AM18 °FLight snow. Mostly cloudy.13 mph71%30.12 "Hg6 mi
4:53 AM19 °FOvercast.15 mph68%30.09 "Hg10 mi
3:53 AM19 °FLight snow. Mostly cloudy.13 mph74%30.08 "Hg8 mi
2:53 AM19 °FLight snow. Overcast.14 mph81%30.08 "Hg3 mi
2:03 AM20 °FLight snow. Mostly cloudy.10 mph82%30.03 "Hg2 mi
1:53 AM20 °FLight snow. Mostly cloudy.10 mph82%30.08 "Hg2 mi
1:01 AM19 °FLight snow. Overcast.12 mph81%30.03 "Hg5 mi
11:53 PM
Fri, Mar 27
20 °FLight snow. Overcast.10 mph78%30.08 "Hg3 mi
10:53 PM20 °FLight snow. Mostly cloudy.10 mph78%30.07 "Hg5 mi
Weather by CustomWeather, © 2015

See weather overviewHow to use our weather pages